Regional Weather Roundup
Issued by NWS

Home | Current Version | Previous Version | Graphics & Text | Print | Product List | Glossary On
Versions: 1 2 3 4 5 6 7 8 9 10 11 12 13 14 15 16 17 18 19 20 21 22 23 24 25 26 27 28 29 30 31 32 33 34 35 36 37 38 39 40 41 42 43 44 45 46 47 48 49 50
000
ASUS43 KLSX 031007
RWRMO

WEATHER SUMMARY FOR MISSOURI
NATIONAL WEATHER SERVICE SPRINGFIELD MO
500 AM CDT SUN MAY 03 2015

NOTE: "FAIR" INDICATES FEW OR NO CLOUDS BELOW 12,000 FEET WITH NO
       SIGNIFICANT WEATHER AND/OR OBSTRUCTIONS TO VISIBILITY.
       CURRENT SKY AND/OR WEATHER CONDITIONS ARE NOT AVAILABLE FOR
       CHILLICOTHE AND FARMINGTON.

MOZ001>031-035>038-043-044-053-054-031100-
...NORTHERN AND WESTERN MISSOURI...

CITY           SKY/WX    TMP DP  RH WIND       PRES   REMARKS
KANSAS CTY INT CLOUDY    64  53  67 S20       29.86S
KANSAS C DTWN  CLOUDY    66  52  60 S10       29.88R
LEE`S SUMMIT   CLOUDY    63  51  65 S10       29.91R
ST JOSEPH      CLOUDY    59  53  80 CALM      29.85R
CHILLICOTHE      N/A     66  52  60 S9        29.89S
KIRKSVILLE     CLOUDY    57  51  80 S8        29.91S

$$
MOZ066>068-077>081-088>096-101>105-031100-
...SOUTHWEST MISSOURI...

CITY           SKY/WX    TMP DP  RH WIND       PRES   REMARKS
SPRINGFIELD    MOCLDY    58  48  69 S10       29.97R
JOPLIN         PTCLDY    60  50  69 S9        29.95R

$$
MOZ032>034-039>042-045>050-055>058-069>072-031100-
...CENTRAL MISSOURI...

CITY           SKY/WX    TMP DP  RH WIND       PRES   REMARKS
COLUMBIA       MOCLDY    57  47  69 S9        29.95S
JEFFERSON CITY MOCLDY    62  45  53 SE5       29.96R
ROLLA          CLOUDY    59  45  59 S9        29.98R
SEDALIA        CLOUDY    60  50  69 S9        29.94S
WHITEMAN AFB   CLOUDY    58  52  79 S8        29.91S
WARRENSBURG    CLOUDY    61  50  67 S7        29.91R
OSAGE BEACH    CLOUDY    57  45  62 SE5       29.97R

$$
MOZ051-052-059>065-031100-
...EAST CENTRAL MISSOURI...

CITY           SKY/WX    TMP DP  RH WIND       PRES   REMARKS
ST LOUIS INTL  CLOUDY    65  43  44 SE8       30.00R
SPIRIT OF STL  CLOUDY    58  47  66 CALM      29.98S
ST CHARLES     MOCLDY    60  49  66 E8        29.98S

$$
MOZ072>076-082>087-097>100-106>115-031100-
...SOUTH CENTRAL AND SOUTHEAST MISSOURI...

CITY           SKY/WX    TMP DP  RH WIND       PRES   REMARKS
CAPE GIRARDEAU CLOUDY    57  50  77 CALM      30.05R
FARMINGTON     MOCLDY    57  43  58 SE3       30.06S
POPLAR BLUFF   MOCLDY    57  51  80 CALM      30.03S
WEST PLAINS    MOCLDY    60  41  49 S6        30.03S

$$



USA.gov is the U.S. government's official web portal to all federal, state and local government web resources and services.